Park Rapids, MN

5:28 PM CST on February 12, 2016 (GMT -0600)
Park Rapids Municipal

Weather History for KPKD - June, 2013

Change the Weather History Date:

Thursday, June 27, 2013

  Actual Average Record
Temperature  
Mean Temperature 72 °F -  
Max Temperature 82 °F 78 °F 95 °F (1961)
Min Temperature 63 °F 53 °F 41 °F (1992)
Cooling Degree Days 8    
Growing Degree Days 22 (Base 50)    
Moisture  
Dew Point 59 °F    
Average Humidity 66    
Maximum Humidity 93    
Minimum Humidity 38    
Precipitation  
Precipitation 0.00 in - - ()
Sea Level Pressure  
Sea Level Pressure 29.81 in    
Wind  
Wind Speed 10 mph (WNW)    
Max Wind Speed 24 mph    
Max Gust Speed 33 mph    
Visibility 10 miles    
Events      
Averages and records for this station are not official NWS values.
T = Trace of Precipitation, MM = Missing Value Source: NWS Daily Summary

Daily Weather History Graph

Daily Weather History Graph

Search for Another Location

Airport or City:

Trip Planner

Search our weather history database for the weather conditions in past years. The results will help you decide how hot, cold, wet, or windy it might be!

Date:

Astronomy

Jun. 27, 2013 Rise Set
Actual Time 5:27 AM CDT 9:18 PM CDT
Civil Twilight 4:48 AM CDT 9:58 PM CDT
Nautical Twilight 3:53 AM CDT 10:52 PM CDT
Astronomical Twilight 2:34 AM CDT 12:12 AM CDT
Moon 11:53 PM CDT (6/27) 10:50 AM CDT (6/27)
Length of Visible Light 17h 10m
Length of Day
15h 51m
Waning Gibbous, 76% of the Moon is Illuminated
Jun 27
Waning Gibbous
Jun 29
Last Quarter
Jul 8
New
Jul 15
First Quarter
Jul 22
Full

Hourly Weather History & Observations

Time (CDT) Temp. Heat Index Dew Point Humidity Pressure Visibility Wind Dir Wind Speed Gust Speed Precip Events Conditions
12:53 AM 66.9 °F - 62.1 °F 84% 29.78 in 10.0 mi SSW 5.8 mph - N/A   Clear
1:53 AM 68.0 °F - 59.0 °F 73% 29.80 in 10.0 mi NNW 3.5 mph - N/A   Partly Cloudy
2:53 AM 64.9 °F - 61.0 °F 87% 29.79 in 10.0 mi South 3.5 mph - N/A   Clear
3:53 AM 64.9 °F - 62.1 °F 90% 29.78 in 10.0 mi SSW 4.6 mph - N/A   Clear
4:53 AM 63.0 °F - 61.0 °F 93% 29.78 in 10.0 mi West 4.6 mph - N/A   Clear
5:53 AM 63.0 °F - 61.0 °F 93% 29.79 in 10.0 mi West 6.9 mph - N/A   Clear
6:53 AM 66.0 °F - 61.0 °F 84% 29.80 in 10.0 mi West 8.1 mph - N/A   Clear
7:53 AM 68.0 °F - 60.1 °F 76% 29.80 in 10.0 mi West 13.8 mph - N/A   Clear
8:53 AM 71.1 °F - 60.1 °F 68% 29.81 in 10.0 mi WNW 12.7 mph - N/A   Clear
9:53 AM 73.0 °F - 60.1 °F 64% 29.81 in 10.0 mi WNW 13.8 mph - N/A   Clear
10:53 AM 75.0 °F - 59.0 °F 57% 29.81 in 10.0 mi WNW 15.0 mph 24.2 mph N/A   Clear
11:53 AM 77.0 °F - 59.0 °F 54% 29.82 in 10.0 mi WNW 19.6 mph - N/A   Partly Cloudy
12:53 PM 79.0 °F - 57.9 °F 48% 29.83 in 10.0 mi NW 17.3 mph 24.2 mph N/A   Clear
1:53 PM 80.1 °F 80.4 °F 57.0 °F 45% 29.83 in 10.0 mi WNW 21.9 mph 28.8 mph N/A   Partly Cloudy
2:53 PM 81.0 °F 81.1 °F 57.9 °F 45% 29.83 in 10.0 mi WNW 18.4 mph 26.5 mph N/A   Mostly Cloudy
3:53 PM 81.0 °F 81.0 °F 57.0 °F 44% 29.81 in 10.0 mi WNW 24.2 mph 32.2 mph N/A   Mostly Cloudy
4:53 PM 82.0 °F 82.0 °F 57.9 °F 44% 29.80 in 10.0 mi WNW 13.8 mph 21.9 mph N/A   Partly Cloudy
5:53 PM 81.0 °F 80.4 °F 53.1 °F 38% 29.79 in 10.0 mi WNW 23.0 mph 33.4 mph N/A   Partly Cloudy
6:53 PM 73.0 °F - 55.9 °F 55% 29.81 in 10.0 mi West 20.7 mph 28.8 mph N/A   Partly Cloudy
7:53 PM 72.0 °F - 57.9 °F 61% 29.80 in 10.0 mi West 10.4 mph - N/A   Clear
8:53 PM 72.0 °F - 59.0 °F 64% 29.80 in 10.0 mi WNW 15.0 mph - N/A   Clear
9:53 PM 71.1 °F - 55.9 °F 59% 29.82 in 10.0 mi NW 12.7 mph - N/A   Clear
10:53 PM 68.0 °F - 57.0 °F 68% 29.83 in 10.0 mi NW 10.4 mph - N/A   Clear
11:53 PM 64.9 °F - 59.0 °F 81% 29.82 in 10.0 mi WNW 6.9 mph - N/A   Clear